This is the latest recevied weather packets stored in our database for station/object KD9NSC. If no packets are shown the sender has not sent any weather packets the latest 10 day(s).
| Time | Temp. | Humidity | Pressure | Rain* | Wind** | Luminosity | Snow |
|---|---|---|---|---|---|---|---|
| 1777507054 | 5.56° C | 91% | 1017.6 hPa | 0 mm | - | 6 W/m² | - |
| 1777506752 | 5.56° C | 90% | 1017.4 hPa | 0 mm | - | 6 W/m² | - |
| 1777506448 | 5.56° C | 90% | 1017.4 hPa | 0 mm | - | 4 W/m² | - |
| 1777506144 | 5.56° C | 90% | 1017.4 hPa | 0 mm | - | 5 W/m² | - |
| 1777505840 | 6.11° C | 90% | 1017.3 hPa | 0 mm | - | 7 W/m² | - |
| 1777505536 | 6.11° C | 91% | 1017.3 hPa | 0 mm | - | 12 W/m² | - |
| 1777505233 | 6.11° C | 90% | 1017.3 hPa | 0 mm | - | 13 W/m² | - |
| 1777504930 | 6.11° C | 90% | 1017.3 hPa | 0 mm | - | 12 W/m² | - |
| 1777504627 | 6.11° C | 90% | 1017.2 hPa | 0 mm | - | 16 W/m² | - |
| 1777504323 | 6.11° C | 90% | 1017.2 hPa | 0 mm | - | 14 W/m² | - |
| 1777504018 | 6.11° C | 90% | 1017.1 hPa | 0 mm | - | 24 W/m² | - |
| 1777503715 | 6.67° C | 90% | 1017.1 hPa | 0 mm | - | 21 W/m² | - |
| 1777503412 | 6.67° C | 90% | 1017.2 hPa | 0 mm | - | 24 W/m² | - |
| 1777503107 | 6.67° C | 91% | 1016.8 hPa | 0 mm | - | 37 W/m² | - |
| 1777502805 | 6.67° C | 91% | 1016.9 hPa | 0 mm | - | 40 W/m² | - |
| 1777502502 | 6.67° C | 91% | 1016.9 hPa | 0 mm | - | 25 W/m² | - |
| 1777502199 | 6.67° C | 91% | 1017 hPa | 0 mm | - | 43 W/m² | - |
| 1777501897 | 6.11° C | 91% | 1017 hPa | 0 mm | - | 36 W/m² | - |
| 1777501593 | 6.11° C | 92% | 1016.7 hPa | 0 mm | - | 32 W/m² | - |
| 1777501290 | 6.11° C | 92% | 1017 hPa | 0 mm | - | 28 W/m² | - |
| 1777500989 | 6.11° C | 91% | 1016.9 hPa | 0 mm | - | 22 W/m² | - |
| 1777500686 | 6.11° C | 91% | 1016.8 hPa | 0 mm | - | 15 W/m² | - |
| 1777500382 | 6.11° C | 91% | 1016.8 hPa | 0 mm | - | 18 W/m² | - |
| 1777500078 | 6.67° C | 92% | 1016.5 hPa | 0 mm | - | 24 W/m² | - |
| 1777499775 | 6.67° C | 92% | 1016.7 hPa | 0 mm | - | 23 W/m² | - |
* Rain latest hour (hover to see other rain measurements)
** Current wind speed in m/s (hover to see current wind gust speed)